ATLAS 5 CENTAUR DEB, 43971

Orbit data source: Space-Track

ATLAS 5 CENTAUR DEB, 43971 is space debris in HEO originally from a launch on Wed, 17 Sep 2014 UTC launched from the Air Force Eastern Test Range (AFETR). Debris objects in space refer to the collection of defunct objects orbiting the Earth. Examples of debris include non-operational satellites, rocket bodies, and fragments generated from explosions, collisions, or faulty payload assembly.

Loading next visibility...
ATLAS 5 CENTAUR DEB details
Identifier
43971, 2014-055AA
Orbit
HEO
Last TLE update2 months ago
Origin
Flag of USULA (US)
ManufacturerUnknown
MissionSpacecraft
Bus & MotorUnknown
MassUnknown
Launch date (UTC)
2014-09-17 (10 years ago)
Launch vehicleUnknown
Launch site
Air Force Eastern Test Range (AFETR)
Object type
Payload
Rocket body
Debris
Shape & HBRUnknown
Radar Cross SectionSmall (<0.1 m²)

Expand to show TLE details & history

TLE from 2 months ago
0 ATLAS 5 CENTAUR DEB
1 43971U 14055AA  24304.41942266 -.00000061  00000-0  00000+0 0  9993
2 43971  19.8828 213.9990 4721697  46.4486 344.1621  1.85585364 41723
Epoch: 2024-10-30T10:03Z
Definitive object data (Epoch: 2024-10-30T10:03:58.117Z)
Latitude-0.00004°
Longitude23.83942°
Altitude10,012.899 km
Speed5.864 km/s
True Right ascension14h 16m 11s
True Declination0° 00' 00"
Sunlit
Object was in daylight at TLE epoch
Visualization TLE readout
Latitude-19.60214°
Longitude-63.48156°
Altitude27,161.854 km
Speed3.085 km/s
Apparent Right ascension08h 15m 05s
Apparent Declination-29° 36' 43"
Sunlit
Object is in daylight
Visualization observer readout
Local Sidereal Time09:32:47
Azimuth197.718° SSW
Elevation18.167°
Doppler factor1
Orbital elements
Apogee altitude34,802.557 km
Perigee altitude8,386.749 km
Semi-major axis27,972.79 km
Eccentricity0.4721697
Inclination19.8828°
RAAN213.999°
Arg. of periapsis46.4486°
True anomaly313.39905°
Mean anomaly344.1621°
Eccentric anomaly331.07904°
Mean motion0.46392 °/min
BSTARUnknown
Orbital period776 mins
Loading maneuver chart data...

ATLAS 5 CENTAUR DEB Visibility forecast

Observer location: undefined°, undefined

Span
Click to sort rows by Start time (UTC) header in descending order
Start Az.
Max El. time (UTC)
Max El. Az.
Max El.
End time (UTC)
End Az.
179 mins2024-12-26 10:11:39.125Z197.712° SSW2024-12-26 12:26:39.125Z158.922° S22.522°2024-12-26 13:10:39.125Z107.004° ESE
386 mins2024-12-27 03:19:39.125Z265.164° W2024-12-27 04:45:39.125Z229.331° WSW24.869°2024-12-27 09:45:39.125Z224.161° SW
|